SCP
0 0 0 0 0 0 0 0 0 0 0 0 0 0 0 0 0 0 0 0 0 0 0 0 0 0 0 0 0 0 0 0 0 0 0 0 0 0 0 -0 0 0 -0
0 0 0 0 0 0 0 0 0 0 0 0 0 0 0 0 0 0 0 0 0 0 0 0 0 0 0 -0 -0 0 0 -0 0 0 0 0 0 0 0 -0 0 0 0
0 0 0 0 0 0 0 0 0 0 0 0 0 0 0 0 0 0 0 0 0 0 0 0 0 0 0 -0 0 0 -0 -0 0 0 0 -0 0 0 0 0 0 0 0
0 0 0 0 0 0 0 0 0 0 0 0 0 0 0 0 0 0 0 0 0 0 0 0 0 0 -0 0 0 -0 -0 0 0 0 0 0 0 0 0 0 0 0 0
0 0 0 0 0 0 0 0 0 0 0 0 0 0 0 0 0 0 0 0 0 0 0 0 0 0 0 0 0 -0 -0 0 0 0 -0 0 0 0 0 0 0 0 -0
0 0 0 0 0 0 0 0 0 0 0 0 0 0 0 0 0 0 0 0 0 0 0 0 0 0 -0 -0 0 -0 -0 0 -0 -0 -0 0 0 -0 0 0 0 -0 -0
0 0 0 0 0 0 0 0 0 0 0 0 0 0 0 0 0 0 0 0 0 0 0 0 0 0 0 0 0 -0 -0 0 0 -0 0 0 -0 -0 0 0 -0 -0 0
0 0 0 0 0 -0 -0 0 0 0 0 0 0 0 0 0 0 0 0 0 0 0 0 0 0 0 0 0 -0 0 -0 0 0 -0 0 0 0 0 0 -0 -0 -0 -0
0 0 -0 0 -0 -0 0 0 0 0 0 0 0 0 0 0 0 0 0 0 0 0 0 0 0 0 0 0 0 0 0 0 0 -0 -0 0 -0 -0 -0 -0 -0 -0 0
0 -0 0 0 -0 0 0 0 0 0 0 0 0 0 0 0 0 0 0 0 0 0 0 0 0 0 0 0 0 0 0 0 0 -0 -0 -0 -0 -0 -0 -0 -0 -0 0
0 -0 0 -0 0 0 0 0 0 0 0 0 0 0 0 0 0 0 0 0 0 0 0 0 0 0 0 0 0 0 -0 0 0 0 0 -0 -0 -0 -0 -0 -0 0 0
0 0 -0 0 0 0 0 0 0 0 0 0 0 0 0 0 0 0 0 0 0 0 0 0 0 0 0 0 0 0 0 0 0 -0 0 0 -0 -0 -0 -0 -0 0 0
0 0 0 0 0 0 0 0 0 0 0 0 0 0 0 0 0 0 0 0 0 0 0 0 0 0 0 0 0 0 0 0 -0 0 0 0 0 0 0 0 0 0 -0
-0 0 0 0 0 0 0 0 0 0 0 0 0 0 0 0 0 0 0 0 0 0 0 0 0 0 0 0 0 0 0 -0 0 0 0 0 0 0 0 0 0 0 0
-0 0 0 0 0 0 0 0 0 0 0 0 0 0 0 0 0 0 0 0 0 0 0 0 0 0 0 0 0 0 0 -0 0 0 0 0 0 0 0 0 0 0 0
0 0 0 0 0 0 0 0 0 0 0 0 0 0 0 0 -0 0 0 0 0 0 0 0 0 0 0 0 0 0 0 0 0 -0 0 0 0 0 0 0 0 0 0
0 0 0 0 0 0 0 0 0 0 0 0 0 0 0 0 0 0 0 0 0 0 0 0 0 0 0 0 0 0 0 0 -0 -0 0 0 0 0 0 0 0 0 0
0 0 0 0 0 0 0 0 0 0 0 0 0 0 0 0 0 0 0 0 0 0 0 0 0 0 0 0 0 0 0 -0 -0 -0 0 0 0 0 0 0 0 0 0
0 0 0 0 0 0 0 0 0 0 0 0 0 0 0 0 0 0 0 0 0 0 0 0 0 0 0 0 0 0 0 0 0 0 0 0 0 0 0 0 0 0 0
0 0 0 0 0 0 0 0 0 0 0 0 0 0 0 0 -0 0 0 0 0 0 0 0 0 0 0 0 0 0 0 0 0 0 0 0 0 0 0 0 0 0 0
0 0 0 0 0 0 0 0 0 0 0 0 0 0 0 0 0 -0 0 0 0 -0 0 0 0 0 0 0 0 0 0 0 0 0 0 0 0 0 0 0 0 0 0
-0 0 0 0 0 0 0 0 0 0 0 0 0 0 0 0 0 0 0 0 0 0 0 0 0 0 0 0 0 0 0 0 0 0 0 0 0 0 0 0 0 0 0
0 0 0 0 0 0 -0 0 0 0 0 0 0 0 0 0 0 0 0 0 0 0 0 0 0 0 0 0 0 0 0 0 0 0 0 0 0 0 0 0 0 0 0
0 0 0 0 0 -0 0 0 0 0 0 0 0 -0 -0 -0 0 0 0 0 0 0 0 0 0 0 0 -0 0 0 0 0 0 0 0 0 0 0 0 0 0 0 0
0 0 0 0 0 -0 0 0 0 0 -0 -0 -0 -0 0 -0 0 0 0 0 0 0 0 0 -0 -0 0 0 0 0 0 0 0 0 0 0 0 0 0 0 0 0 0
0 0 0 0 0 -0 -0 0 0 0 0 -0 -0 -0 0 0 0 0 -0 -0 0 -0 -0 -0 0 0 0 0 0 0 0 0 0 0 0 0 0 0 0 0 0 0 0
Wind_Speed_500mb
27 22 23 28 26 24 23 23 30 37 39 35 30 35 33 28 34 41 43 38 37 48 63 65 77 85 74 75 75 69 63 55 50 49 45 42 38 32 29 22 16 13 11
32 26 24 25 25 28 26 25 26 34 39 37 32 39 35 28 35 39 40 39 38 49 56 57 69 75 77 85 80 73 70 53 52 49 46 40 34 30 23 19 14 12 12
32 32 29 26 22 24 28 31 29 33 35 41 36 45 33 33 38 38 36 40 37 51 55 54 66 74 82 81 76 80 64 56 52 47 43 37 32 25 18 16 12 12 17
30 31 30 26 23 25 26 34 34 33 35 39 41 47 34 34 41 39 40 39 41 52 50 53 64 67 70 78 82 67 62 56 53 47 41 35 29 20 17 14 16 20 21
23 27 23 22 23 22 26 33 38 37 35 37 43 39 34 38 39 42 46 42 41 50 50 55 60 62 71 80 67 66 62 59 52 47 39 33 27 20 15 19 20 20 16
21 23 17 19 21 19 21 33 44 38 37 37 36 38 33 36 38 38 40 42 40 45 57 64 68 66 80 76 72 68 64 60 51 43 39 33 26 19 24 21 19 17 12
19 19 18 19 16 12 14 27 32 39 38 30 34 35 35 38 33 36 36 37 42 47 52 63 74 69 71 75 74 72 63 53 46 42 36 32 23 22 17 18 16 11 7
13 18 15 14 10 8 20 27 31 36 34 32 38 37 31 30 29 32 39 43 42 43 56 71 81 77 81 81 69 61 54 48 44 37 33 25 21 19 19 17 12 8 2
8 16 16 14 13 12 18 23 32 35 33 36 32 37 20 13 37 35 44 50 45 48 49 57 70 73 72 76 66 64 52 51 46 36 26 22 18 15 15 13 9 5 3
12 14 15 18 15 15 20 23 32 35 33 35 35 34 27 36 35 36 54 54 52 50 52 50 63 76 64 79 62 58 49 40 30 27 21 17 13 14 14 11 8 3 4
12 18 20 21 22 19 18 19 29 28 31 35 40 34 27 33 44 34 55 58 52 49 54 61 67 74 70 70 64 52 39 29 28 23 16 12 9 13 13 12 7 4 4
15 25 25 28 23 23 19 18 21 30 25 37 34 32 31 49 43 65 61 64 64 52 59 62 63 73 74 70 64 35 31 31 22 18 14 11 12 14 13 11 7 7 6
19 30 29 30 23 24 19 15 19 26 22 31 29 27 33 46 48 56 66 58 58 59 63 62 62 62 68 66 46 36 31 26 23 17 14 11 14 14 14 12 11 10 9
21 30 28 29 21 24 17 14 20 22 24 31 30 32 39 45 50 68 56 65 61 57 71 58 57 58 60 57 44 35 32 26 18 14 13 15 16 17 16 13 13 12 13
21 29 27 29 20 23 19 16 20 21 26 32 35 44 48 54 58 64 67 67 76 51 47 51 53 49 57 54 44 35 24 21 22 16 14 16 16 18 15 12 15 16 17
16 22 25 25 27 26 24 20 19 22 21 31 36 53 46 49 66 70 75 71 61 67 37 56 53 50 49 51 38 26 19 19 17 13 16 16 19 17 13 15 18 21 22
19 21 22 27 32 33 26 23 25 30 31 30 30 38 44 53 62 68 73 68 70 65 55 54 46 42 45 42 39 27 23 16 14 17 17 18 16 16 17 20 22 26 27
22 24 31 33 36 35 30 29 34 32 33 35 34 34 47 58 61 71 58 52 39 40 53 49 49 41 38 39 30 23 16 15 12 10 12 10 15 19 21 23 26 29 32
24 28 32 33 37 36 30 28 28 32 29 27 29 36 48 55 60 66 52 40 41 37 50 44 40 39 36 33 33 26 21 14 14 16 10 11 13 15 21 25 30 35 40
28 32 29 31 33 30 29 32 32 30 27 22 24 38 46 51 64 61 48 51 42 48 41 37 38 31 30 31 24 17 21 15 10 10 11 9 18 19 23 29 31 35 36
28 31 34 33 29 25 26 29 31 23 21 25 31 38 50 63 56 52 52 47 48 48 45 44 31 23 23 27 23 13 11 7 12 14 10 16 21 24 30 34 37 42 47
25 24 31 28 22 20 21 24 32 19 27 40 37 40 43 53 46 46 54 45 36 34 34 28 25 23 20 16 15 9 7 5 10 9 16 23 33 29 36 33 41 49 50
20 20 26 25 25 25 25 32 30 27 35 40 42 47 46 52 53 43 44 32 28 26 25 27 25 24 22 17 12 7 4 4 11 22 28 30 40 40 38 39 38 44 43
12 14 25 29 30 29 28 33 36 30 34 40 42 48 60 58 49 45 35 29 26 25 20 14 9 3 2 4 4 6 11 19 25 24 29 29 34 37 37 39 27 32 34
9 15 20 27 32 32 34 37 38 36 40 39 37 39 46 46 37 31 28 26 24 21 17 8 10 14 4 1 7 11 16 18 23 22 23 18 26 33 30 24 29 32 36
14 25 25 25 32 34 34 33 34 35 38 39 38 40 37 38 40 41 38 29 31 27 20 15 18 18 10 10 12 12 10 10 11 10 11 24 24 27 19 16 35 37 42
Wind_Direction_500mb
275 286 279 266 265 265 258 243 229 220 217 216 218 208 203 209 213 208 217 218 215 206 196 199 195 192 191 185 183 178 174 163 168 172 164 167 157 152 146 144 141 133 128
275 275 287 274 261 267 251 237 221 215 220 216 217 200 204 207 207 209 211 218 216 204 196 194 199 195 191 189 181 171 160 171 174 168 163 158 153 153 145 142 138 138 125
273 272 280 272 266 268 248 230 218 218 222 214 214 199 208 209 209 216 214 217 213 203 200 202 199 199 193 186 174 160 160 175 173 162 160 159 153 149 149 140 135 125 122
273 267 265 261 266 265 246 229 219 215 215 211 201 202 211 215 214 223 214 217 213 200 201 198 194 196 190 170 155 157 164 171 166 163 159 160 148 151 148 141 132 133 124
274 265 249 256 267 264 244 229 218 213 209 207 198 205 210 215 214 221 215 212 205 190 187 186 188 184 169 159 158 161 165 168 164 159 160 157 155 156 150 139 134 129 125
272 260 247 261 265 262 248 216 210 213 206 210 208 206 217 213 224 208 206 205 203 200 188 183 175 178 162 154 162 163 166 165 163 153 164 160 153 161 140 131 138 125 117
281 252 233 245 260 252 220 194 199 201 200 204 206 204 204 204 205 194 201 206 190 196 195 194 176 170 163 161 163 168 164 158 151 165 163 161 151 132 119 148 136 132 133
270 248 225 238 216 198 180 183 190 193 200 198 190 173 163 190 196 201 200 194 186 188 191 183 170 171 168 166 164 162 154 153 161 165 161 146 130 124 150 144 144 140 108
255 185 206 197 180 169 174 177 180 188 195 189 199 179 150 176 182 198 193 190 185 179 172 170 175 172 164 156 154 155 163 165 172 162 152 136 124 146 154 145 162 188 321
166 178 178 168 166 161 171 187 195 190 196 194 183 200 201 194 170 161 188 182 176 180 179 176 171 170 158 155 156 164 173 175 158 157 144 138 135 154 162 170 204 249 340
165 164 158 151 152 157 159 173 178 190 196 193 192 195 206 193 181 164 143 163 167 168 172 170 169 170 166 163 161 167 176 163 169 157 154 156 161 170 176 194 224 273 280
173 166 165 161 152 153 148 161 190 185 195 190 188 205 214 186 191 150 150 156 165 174 178 177 170 170 167 164 166 173 170 170 166 170 171 193 198 190 195 214 247 278 279
171 178 176 170 151 154 149 160 174 178 181 179 189 184 198 199 184 163 156 148 148 164 166 170 171 168 170 171 177 170 173 170 178 179 201 216 220 205 208 224 249 256 267
166 174 180 171 163 165 162 167 168 178 175 186 183 189 190 196 180 167 171 168 155 138 163 165 172 180 184 179 173 168 174 180 185 197 221 226 211 205 215 232 263 270 272
144 172 172 176 161 161 170 174 175 170 175 180 180 171 166 164 172 170 176 190 165 150 154 170 173 187 181 180 170 173 169 183 197 210 214 217 210 213 229 261 279 279 287
147 165 173 176 174 166 172 172 171 168 181 178 180 176 180 169 169 167 165 168 177 165 157 176 181 184 167 171 168 167 186 206 207 209 214 218 222 230 250 278 291 300 296
134 149 156 158 159 164 163 162 161 155 165 162 157 166 169 171 171 168 167 166 168 176 163 176 175 177 170 175 178 192 217 218 210 216 223 228 238 252 276 290 297 294 301
123 131 151 148 152 158 158 154 154 155 157 158 158 160 168 172 167 167 158 153 161 177 174 163 170 166 172 178 189 212 227 205 206 217 229 248 261 276 285 293 299 301 307
126 127 141 145 149 155 160 164 154 145 153 161 161 163 169 176 171 164 157 156 153 156 159 155 162 156 168 186 206 209 201 210 220 230 243 256 263 283 291 303 308 311 311
126 133 138 147 151 156 163 167 168 157 156 153 164 172 176 171 172 159 156 151 154 151 153 151 156 167 190 197 204 207 208 216 244 271 268 288 284 305 323 322 323 323 324
125 137 144 147 157 160 173 179 186 187 189 178 164 170 171 164 162 172 165 155 146 150 158 165 189 200 208 206 205 209 216 233 273 290 339 340 331 337 340 328 320 310 308
131 145 157 160 161 163 172 174 170 158 157 150 149 150 158 163 160 151 154 157 154 159 162 170 193 197 189 200 202 206 155 242 310 340 349 332 319 320 317 313 304 294 288
114 119 148 160 156 143 152 157 155 156 150 146 143 150 151 149 151 147 149 145 153 152 128 122 122 115 112 111 127 120 84 5 339 305 312 323 325 327 318 307 311 313 308
111 136 141 154 152 140 146 141 142 146 148 146 149 153 152 155 155 151 154 160 160 164 171 199 225 150 46 196 279 299 291 306 309 310 319 320 319 310 310 319 328 328 335
134 153 144 145 153 151 151 144 144 139 144 147 147 150 162 166 166 161 162 160 161 168 176 192 170 220 256 332 296 310 311 306 306 298 298 304 312 318 330 335 337 349 348
165 167 163 153 148 144 151 157 156 156 156 158 156 158 166 174 175 172 173 174 165 161 175 161 164 195 249 261 265 268 272 265 266 275 255 303 318 329 339 310 333 342 335
Wind_Speed_850mb
27 22 23 28 26 24 23 23 30 37 39 35 30 35 33 28 34 41 43 38 37 48 63 65 77 85 74 75 75 69 63 55 50 49 45 42 38 32 29 22 16 13 11
32 26 24 25 25 28 26 25 26 34 39 37 32 39 35 28 35 39 40 39 38 49 56 57 69 75 77 85 80 73 70 53 52 49 46 40 34 30 23 19 14 12 12
32 32 29 26 22 24 28 31 29 33 35 41 36 45 33 33 38 38 36 40 37 51 55 54 66 74 82 81 76 80 64 56 52 47 43 37 32 25 18 16 12 12 17
30 31 30 26 23 25 26 34 34 33 35 39 41 47 34 34 41 39 40 39 41 52 50 53 64 67 70 78 82 67 62 56 53 47 41 35 29 20 17 14 16 20 21
23 27 23 22 23 22 26 33 38 37 35 37 43 39 34 38 39 42 46 42 41 50 50 55 60 62 71 80 67 66 62 59 52 47 39 33 27 20 15 19 20 20 16
21 23 17 19 21 19 21 33 44 38 37 37 36 38 33 36 38 38 40 42 40 45 57 64 68 66 80 76 72 68 64 60 51 43 39 33 26 19 24 21 19 17 12
19 19 18 19 16 12 14 27 32 39 38 30 34 35 35 38 33 36 36 37 42 47 52 63 74 69 71 75 74 72 63 53 46 42 36 32 23 22 17 18 16 11 7
13 18 15 14 10 8 20 27 31 36 34 32 38 37 31 30 29 32 39 43 42 43 56 71 81 77 81 81 69 61 54 48 44 37 33 25 21 19 19 17 12 8 2
8 16 16 14 13 12 18 23 32 35 33 36 32 37 20 13 37 35 44 50 45 48 49 57 70 73 72 76 66 64 52 51 46 36 26 22 18 15 15 13 9 5 3
12 14 15 18 15 15 20 23 32 35 33 35 35 34 27 36 35 36 54 54 52 50 52 50 63 76 64 79 62 58 49 40 30 27 21 17 13 14 14 11 8 3 4
12 18 20 21 22 19 18 19 29 28 31 35 40 34 27 33 44 34 55 58 52 49 54 61 67 74 70 70 64 52 39 29 28 23 16 12 9 13 13 12 7 4 4
15 25 25 28 23 23 19 18 21 30 25 37 34 32 31 49 43 65 61 64 64 52 59 62 63 73 74 70 64 35 31 31 22 18 14 11 12 14 13 11 7 7 6
19 30 29 30 23 24 19 15 19 26 22 31 29 27 33 46 48 56 66 58 58 59 63 62 62 62 68 66 46 36 31 26 23 17 14 11 14 14 14 12 11 10 9
21 30 28 29 21 24 17 14 20 22 24 31 30 32 39 45 50 68 56 65 61 57 71 58 57 58 60 57 44 35 32 26 18 14 13 15 16 17 16 13 13 12 13
21 29 27 29 20 23 19 16 20 21 26 32 35 44 48 54 58 64 67 67 76 51 47 51 53 49 57 54 44 35 24 21 22 16 14 16 16 18 15 12 15 16 17
16 22 25 25 27 26 24 20 19 22 21 31 36 53 46 49 66 70 75 71 61 67 37 56 53 50 49 51 38 26 19 19 17 13 16 16 19 17 13 15 18 21 22
19 21 22 27 32 33 26 23 25 30 31 30 30 38 44 53 62 68 73 68 70 65 55 54 46 42 45 42 39 27 23 16 14 17 17 18 16 16 17 20 22 26 27
22 24 31 33 36 35 30 29 34 32 33 35 34 34 47 58 61 71 58 52 39 40 53 49 49 41 38 39 30 23 16 15 12 10 12 10 15 19 21 23 26 29 32
24 28 32 33 37 36 30 28 28 32 29 27 29 36 48 55 60 66 52 40 41 37 50 44 40 39 36 33 33 26 21 14 14 16 10 11 13 15 21 25 30 35 40
28 32 29 31 33 30 29 32 32 30 27 22 24 38 46 51 64 61 48 51 42 48 41 37 38 31 30 31 24 17 21 15 10 10 11 9 18 19 23 29 31 35 36
28 31 34 33 29 25 26 29 31 23 21 25 31 38 50 63 56 52 52 47 48 48 45 44 31 23 23 27 23 13 11 7 12 14 10 16 21 24 30 34 37 42 47
25 24 31 28 22 20 21 24 32 19 27 40 37 40 43 53 46 46 54 45 36 34 34 28 25 23 20 16 15 9 7 5 10 9 16 23 33 29 36 33 41 49 50
20 20 26 25 25 25 25 32 30 27 35 40 42 47 46 52 53 43 44 32 28 26 25 27 25 24 22 17 12 7 4 4 11 22 28 30 40 40 38 39 38 44 43
12 14 25 29 30 29 28 33 36 30 34 40 42 48 60 58 49 45 35 29 26 25 20 14 9 3 2 4 4 6 11 19 25 24 29 29 34 37 37 39 27 32 34
9 15 20 27 32 32 34 37 38 36 40 39 37 39 46 46 37 31 28 26 24 21 17 8 10 14 4 1 7 11 16 18 23 22 23 18 26 33 30 24 29 32 36
14 25 25 25 32 34 34 33 34 35 38 39 38 40 37 38 40 41 38 29 31 27 20 15 18 18 10 10 12 12 10 10 11 10 11 24 24 27 19 16 35 37 42
Wind_Direction_850mb
275 286 279 266 265 265 258 243 229 220 217 216 218 208 203 209 213 208 217 218 215 206 196 199 195 192 191 185 183 178 174 163 168 172 164 167 157 152 146 144 141 133 128
275 275 287 274 261 267 251 237 221 215 220 216 217 200 204 207 207 209 211 218 216 204 196 194 199 195 191 189 181 171 160 171 174 168 163 158 153 153 145 142 138 138 125
273 272 280 272 266 268 248 230 218 218 222 214 214 199 208 209 209 216 214 217 213 203 200 202 199 199 193 186 174 160 160 175 173 162 160 159 153 149 149 140 135 125 122
273 267 265 261 266 265 246 229 219 215 215 211 201 202 211 215 214 223 214 217 213 200 201 198 194 196 190 170 155 157 164 171 166 163 159 160 148 151 148 141 132 133 124
274 265 249 256 267 264 244 229 218 213 209 207 198 205 210 215 214 221 215 212 205 190 187 186 188 184 169 159 158 161 165 168 164 159 160 157 155 156 150 139 134 129 125
272 260 247 261 265 262 248 216 210 213 206 210 208 206 217 213 224 208 206 205 203 200 188 183 175 178 162 154 162 163 166 165 163 153 164 160 153 161 140 131 138 125 117
281 252 233 245 260 252 220 194 199 201 200 204 206 204 204 204 205 194 201 206 190 196 195 194 176 170 163 161 163 168 164 158 151 165 163 161 151 132 119 148 136 132 133
270 248 225 238 216 198 180 183 190 193 200 198 190 173 163 190 196 201 200 194 186 188 191 183 170 171 168 166 164 162 154 153 161 165 161 146 130 124 150 144 144 140 108
255 185 206 197 180 169 174 177 180 188 195 189 199 179 150 176 182 198 193 190 185 179 172 170 175 172 164 156 154 155 163 165 172 162 152 136 124 146 154 145 162 188 321
166 178 178 168 166 161 171 187 195 190 196 194 183 200 201 194 170 161 188 182 176 180 179 176 171 170 158 155 156 164 173 175 158 157 144 138 135 154 162 170 204 249 340
165 164 158 151 152 157 159 173 178 190 196 193 192 195 206 193 181 164 143 163 167 168 172 170 169 170 166 163 161 167 176 163 169 157 154 156 161 170 176 194 224 273 280
173 166 165 161 152 153 148 161 190 185 195 190 188 205 214 186 191 150 150 156 165 174 178 177 170 170 167 164 166 173 170 170 166 170 171 193 198 190 195 214 247 278 279
171 178 176 170 151 154 149 160 174 178 181 179 189 184 198 199 184 163 156 148 148 164 166 170 171 168 170 171 177 170 173 170 178 179 201 216 220 205 208 224 249 256 267
166 174 180 171 163 165 162 167 168 178 175 186 183 189 190 196 180 167 171 168 155 138 163 165 172 180 184 179 173 168 174 180 185 197 221 226 211 205 215 232 263 270 272
144 172 172 176 161 161 170 174 175 170 175 180 180 171 166 164 172 170 176 190 165 150 154 170 173 187 181 180 170 173 169 183 197 210 214 217 210 213 229 261 279 279 287
147 165 173 176 174 166 172 172 171 168 181 178 180 176 180 169 169 167 165 168 177 165 157 176 181 184 167 171 168 167 186 206 207 209 214 218 222 230 250 278 291 300 296
134 149 156 158 159 164 163 162 161 155 165 162 157 166 169 171 171 168 167 166 168 176 163 176 175 177 170 175 178 192 217 218 210 216 223 228 238 252 276 290 297 294 301
123 131 151 148 152 158 158 154 154 155 157 158 158 160 168 172 167 167 158 153 161 177 174 163 170 166 172 178 189 212 227 205 206 217 229 248 261 276 285 293 299 301 307
126 127 141 145 149 155 160 164 154 145 153 161 161 163 169 176 171 164 157 156 153 156 159 155 162 156 168 186 206 209 201 210 220 230 243 256 263 283 291 303 308 311 311
126 133 138 147 151 156 163 167 168 157 156 153 164 172 176 171 172 159 156 151 154 151 153 151 156 167 190 197 204 207 208 216 244 271 268 288 284 305 323 322 323 323 324
125 137 144 147 157 160 173 179 186 187 189 178 164 170 171 164 162 172 165 155 146 150 158 165 189 200 208 206 205 209 216 233 273 290 339 340 331 337 340 328 320 310 308
131 145 157 160 161 163 172 174 170 158 157 150 149 150 158 163 160 151 154 157 154 159 162 170 193 197 189 200 202 206 155 242 310 340 349 332 319 320 317 313 304 294 288
114 119 148 160 156 143 152 157 155 156 150 146 143 150 151 149 151 147 149 145 153 152 128 122 122 115 112 111 127 120 84 5 339 305 312 323 325 327 318 307 311 313 308
111 136 141 154 152 140 146 141 142 146 148 146 149 153 152 155 155 151 154 160 160 164 171 199 225 150 46 196 279 299 291 306 309 310 319 320 319 310 310 319 328 328 335
134 153 144 145 153 151 151 144 144 139 144 147 147 150 162 166 166 161 162 160 161 168 176 192 170 220 256 332 296 310 311 306 306 298 298 304 312 318 330 335 337 349 348
165 167 163 153 148 144 151 157 156 156 156 158 156 158 166 174 175 172 173 174 165 161 175 161 164 195 249 261 265 268 272 265 266 275 255 303 318 329 339 310 333 342 335